OBJECT K, 66004

Orbit data source: Space-Track

You're viewing an Uncataloged Satellite

Recently launched and/or uncataloged satellites may have evolving metadata. Metadata may include but not limited to: Owner, Maufacturer, Bus, Motor, and Mission.

OBJECT K, 66004 is a satellite owned by CASC (CN) in LEO that was launched on Thu, 16 Oct 2025 UTC launched from the Wenchang Satellite Launch Center (WSC). Unknown objects in Earth's orbit typically refer to objects detected orbiting the Earth but have not yet been identified or cataloged. These objects could be anything from previously untracked satellites, spent rocket stages, debris from satellite collisions, or even natural meteoroids temporarily captured by Earth's gravity.

Loading next visibility...
Identifier
66004, 2025-231K
Orbit
LEO
Country
Flag of CNCN / PRC
Related business
Manufacturer
CALT
Mission
Spacecraft
Bus & Motor
CZ-8A STAGE 2, Unknown motor
Mass
~2,800 kg wet, ~2,800 kg dry
Launch date (UTC)
2025-10-16 (2 months ago)
Launch vehicle
Unknown
Launch site
Wenchang Satellite Launch Center (WSC)
Object type
Unknown
Shape & HBR
Unknown shape, 1.1 m
Radar Cross Section
RCS unknown

Expand to show TLE details & history
Last TLE update: 17 hours ago

TLE from 17 hours ago
0 OBJECT K
1 66004U 25231K   25340.89086250  .00000272  00000-0  15550-3 0  9991
2 66004  50.0027 137.3974 0116698 266.4610  92.2953 14.30051185  7423
Epoch: 2025-12-06T21:22Z
TLE epoch observation values (Epoch: 2025-12-06T21:22:50.520Z)
Latitude
-0.00003°
Longitude
100.77478°
Altitude
796.416 km
Speed
7.454 km/s
True Right ascension
09h 09m 35s
True Declination
0° 00' 00"
Sunlit
Object was in daylight at epoch
Visualization orbit readout
Latitude
Unknown
Longitude
Unknown
Altitude
Unknown
Speed
Unknown
Apparent Right ascension
Unknown
Apparent Declination
Unknown
Sunlit
N/A
Visualization observer readout
Local Sidereal Time
12:45:28
Azimuth
Unknown
Elevation
Unknown
Doppler factor
Unknown
Orbital elements
Apogee altitude
875.977 km
Perigee altitude
708.622 km
Semi-major axis
7,170.437 km
Eccentricity
0.01167
Inclination
50.0027°
RAAN
137.3974°
Arg. of periapsis
266.461°
True anomaly
93.63059°
Mean anomaly
92.2953°
Eccentric anomaly
92.96304°
Mean motion
3.57458 °/min
Orbital period
100.71 mins
BSTAR
0.0001555
Loading maneuver chart data...
Computing Atmospheric mass density...
Loading historical data...
Loading historical data...
Loading historical data...
Loading historical data...
Loading historical data...
Loading historical data...
Loading historical data...

Documentation

Showing up to 5 results
|